weather.gov     
National Weather Service

Terminal Aerodrome Forecast
NWS Homepage
This page is being discontinued on March 12, 2014.
The same data is available at this site. Please update your bookmarks.
Thank you, and we apologize for the inconvenience.
Please send an email to SR-SRH.Webmaster@noaa.gov with any concerns.


Current Version
Previous Version:    01  02  03  04  05  06  07  08  09  10  11  12  13  14  15  16  17  18  19  20  21  22  23  24  25  26  27  28  29  
[Printable]
908
FTUS43 KMQT 222300
TAFIWD
TAF
KIWD 222336Z 2300/2324 16010G15KT P6SM SCT060
     FM230200 17010KT P6SM VCSH BKN060 WS010/20040KT
     FM231100 18010KT P6SM -SHRA OVC060 WS010/20040KT
     FM231300 18009KT P6SM -SHRA BKN025
     FM231700 18008KT P6SM OVC015
     FM232100 22006KT P6SM BKN020
      AMD LTD TO CLD VIS AND WIND=


U.S. Dept. of Commerce
NOAA National Weather Service
1325 East West Highway
Silver Spring, MD 20910
E-mail: w-nws.webmaster@noaa.gov
Page last modified: May 16, 2007
NATIONAL WEATHER SERVICE: for Safety, for Work, for Fun - FOR LIFE